SAS338 ENGM-ENVA

Flight info

Callsign SAS338
Flight time N/A
Altitude 30000
Route RIBBE DCT GIGNI DCT VEVOD
Aircraft A320/M-SDE3FGHIRWY/LB1

Departure

Time 2026-05-04 20:27
Airport Oslo-Gardermoen International Airport (ENGM)

Arrival

Time N/A
Airport Trondheim Airport, Værnes (ENVA)
Time Latitude Longitude Altitude Speed Heading
2026-05-04 19:53 60.19551 11.09915 681 ft 0 kts 108°
2026-05-04 20:17 60.19552 11.09910 681 ft 3 kts 108°
2026-05-04 20:17 60.19561 11.09862 681 ft 4 kts 118°
2026-05-04 20:17 60.19576 11.09817 681 ft 4 kts 131°
2026-05-04 20:18 60.19595 11.09779 681 ft 4 kts 139°
2026-05-04 20:18 60.19615 11.09742 681 ft 4 kts 130°
2026-05-04 20:18 60.19633 11.09702 680 ft 4 kts 135°
2026-05-04 20:18 60.19643 11.09682 681 ft 1 kts 135°
2026-05-04 20:19 60.19644 11.09680 681 ft 0 kts 135°
2026-05-04 20:21 60.19652 11.09740 680 ft 8 kts 37°
2026-05-04 20:21 60.19668 11.09751 681 ft 1 kts 17°
2026-05-04 20:21 60.19796 11.09818 681 ft 13 kts 15°
2026-05-04 20:22 60.19884 11.09866 682 ft 14 kts 15°
2026-05-04 20:22 60.19981 11.09921 682 ft 15 kts 15°
2026-05-04 20:22 60.20042 11.10048 684 ft 13 kts 98°
2026-05-04 20:22 60.20016 11.10217 684 ft 12 kts 107°
2026-05-04 20:23 60.19987 11.10423 684 ft 17 kts 105°
2026-05-04 20:23 60.19954 11.10653 684 ft 17 kts 106°
2026-05-04 20:23 60.19922 11.10868 682 ft 15 kts 106°
2026-05-04 20:23 60.19896 11.11052 681 ft 13 kts 106°
2026-05-04 20:24 60.19871 11.11224 684 ft 15 kts 105°
2026-05-04 20:24 60.19843 11.11454 683 ft 17 kts 94°
2026-05-04 20:24 60.19923 11.11574 680 ft 15 kts 15°
2026-05-04 20:24 60.20026 11.11631 687 ft 15 kts 15°
2026-05-04 20:25 60.20087 11.11780 688 ft 17 kts 102°
2026-05-04 20:25 60.20052 11.12005 685 ft 16 kts 107°
2026-05-04 20:25 60.20003 11.12178 684 ft 13 kts 163°
2026-05-04 20:25 60.19977 11.12168 687 ft 0 kts 198°
2026-05-04 20:26 60.19934 11.12141 687 ft 26 kts 197°
2026-05-04 20:26 60.19498 11.11888 689 ft 101 kts 196°
2026-05-04 20:26 60.18620 11.11383 684 ft 159 kts 196°
2026-05-04 20:26 60.17503 11.10729 1222 ft 165 kts 200°
2026-05-04 20:27 60.16390 11.10097 2082 ft 164 kts 204°
2026-05-04 20:27 60.15296 11.09480 2682 ft 171 kts 204°
2026-05-04 20:27 60.14049 11.09019 3050 ft 198 kts 183°
2026-05-04 20:27 60.12634 11.09917 3388 ft 227 kts 150°
2026-05-04 20:28 60.11458 11.12157 3792 ft 245 kts 135°
2026-05-04 20:28 60.10244 11.14760 4267 ft 266 kts 136°
2026-05-04 20:28 60.08970 11.17611 4876 ft 281 kts 128°
2026-05-04 20:28 60.08156 11.21234 5679 ft 291 kts 102°
2026-05-04 20:29 60.08043 11.25290 6497 ft 294 kts 82°
2026-05-04 20:29 60.08651 11.29180 7315 ft 295 kts 57°
2026-05-04 20:29 60.09960 11.32319 8125 ft 294 kts 34°
2026-05-04 20:29 60.11730 11.34294 8927 ft 290 kts 12°
2026-05-04 20:30 60.13693 11.34887 9743 ft 285 kts 356°
2026-05-04 20:30 60.15712 11.35044 10271 ft 299 kts 354°
2026-05-04 20:30 60.17871 11.35167 10515 ft 322 kts 355°
2026-05-04 20:30 60.20177 11.35319 10858 ft 339 kts 355°
2026-05-04 20:31 60.22555 11.35523 11514 ft 345 kts 355°
2026-05-04 20:31 60.24971 11.35766 12233 ft 350 kts 355°
2026-05-04 20:31 60.27414 11.36023 13046 ft 354 kts 355°
2026-05-04 20:31 60.29894 11.36285 13696 ft 358 kts 355°
2026-05-04 20:32 60.32393 11.36553 14318 ft 362 kts 354°
2026-05-04 20:32 60.34924 11.36824 14947 ft 366 kts 353°
2026-05-04 20:32 60.37479 11.37098 15560 ft 370 kts 353°
2026-05-04 20:32 60.40062 11.37376 16182 ft 373 kts 352°
2026-05-04 20:33 60.42673 11.37658 16774 ft 377 kts 352°
2026-05-04 20:33 60.45302 11.37945 17359 ft 380 kts 351°
2026-05-04 20:33 60.47956 11.38239 17925 ft 384 kts 351°
2026-05-04 20:33 60.50636 11.38534 18434 ft 387 kts 351°
2026-05-04 20:34 60.53333 11.38831 18930 ft 391 kts 351°
2026-05-04 20:34 60.56061 11.39130 19512 ft 394 kts 351°
2026-05-04 20:34 60.58807 11.39433 19974 ft 397 kts 351°
2026-05-04 20:34 60.61578 11.39733 20451 ft 400 kts 351°
2026-05-04 20:35 60.64370 11.40040 20919 ft 403 kts 350°
2026-05-04 20:35 60.67182 11.40351 21388 ft 406 kts 350°
2026-05-04 20:35 60.70019 11.40663 21846 ft 409 kts 350°
2026-05-04 20:35 60.72837 11.40978 22304 ft 412 kts 350°
2026-05-04 20:36 60.75746 11.41303 22772 ft 415 kts 349°
2026-05-04 20:36 60.78639 11.41628 23225 ft 418 kts 349°
2026-05-04 20:36 60.81552 11.41953 23609 ft 420 kts 349°
2026-05-04 20:36 60.84481 11.42277 23983 ft 423 kts 349°
2026-05-04 20:37 60.87393 11.42596 24415 ft 426 kts 349°
2026-05-04 20:37 60.90395 11.42927 24765 ft 428 kts 349°
2026-05-04 20:37 60.93337 11.43254 25085 ft 430 kts 349°
2026-05-04 20:37 60.96337 11.43589 25410 ft 433 kts 349°
2026-05-04 20:38 60.99353 11.43935 25743 ft 435 kts 350°
2026-05-04 20:38 61.02385 11.44285 26107 ft 437 kts 350°
2026-05-04 20:38 61.05437 11.44635 26483 ft 440 kts 350°
2026-05-04 20:38 61.08493 11.44982 26846 ft 442 kts 350°
2026-05-04 20:39 61.11581 11.45333 27186 ft 444 kts 350°
2026-05-04 20:39 61.14674 11.45686 27516 ft 446 kts 350°
2026-05-04 20:39 61.17785 11.46039 27834 ft 448 kts 350°
2026-05-04 20:39 61.20908 11.46387 28135 ft 450 kts 350°
2026-05-04 20:40 61.24046 11.46747 28411 ft 453 kts 350°
2026-05-04 20:40 61.27202 11.47111 28703 ft 455 kts 350°
2026-05-04 20:40 61.30371 11.47476 29008 ft 457 kts 351°
2026-05-04 20:40 61.33551 11.47838 29327 ft 459 kts 351°
2026-05-04 20:41 61.36740 11.48202 29603 ft 460 kts 351°
2026-05-04 20:41 61.39932 11.48484 29966 ft 457 kts 349°
2026-05-04 20:41 61.43105 11.48590 30293 ft 455 kts 348°
2026-05-04 20:41 61.46271 11.48574 30607 ft 455 kts 347°
2026-05-04 20:42 61.49435 11.48494 30717 ft 455 kts 347°
2026-05-04 20:42 61.52596 11.48416 30755 ft 453 kts 347°
2026-05-04 20:42 61.58888 11.48345 30748 ft 452 kts 348°
2026-05-04 20:43 61.65198 11.48365 30751 ft 453 kts 348°
2026-05-04 20:43 61.71495 11.48417 30744 ft 453 kts 348°
2026-05-04 20:44 61.74644 11.48436 30848 ft 453 kts 348°
2026-05-04 20:44 61.77800 11.48451 30752 ft 453 kts 349°
2026-05-04 20:44 61.83036 11.48476 30752 ft 453 kts 349°
2026-05-04 20:45 61.90365 11.48496 30742 ft 453 kts 349°
2026-05-04 20:45 61.96671 11.48514 30737 ft 453 kts 349°
2026-05-04 20:46 62.01907 11.48107 30736 ft 443 kts 342°
2026-05-04 20:46 62.08012 11.46687 30772 ft 445 kts 343°
2026-05-04 20:47 62.14174 11.45236 30726 ft 447 kts 343°
2026-05-04 20:47 62.17275 11.44509 30483 ft 448 kts 343°
2026-05-04 20:47 62.20371 11.43790 30249 ft 448 kts 343°
2026-05-04 20:48 62.23474 11.43074 30014 ft 448 kts 343°
2026-05-04 20:48 62.26565 11.42361 29479 ft 445 kts 343°
2026-05-04 20:48 62.29630 11.41654 28807 ft 441 kts 343°
2026-05-04 20:48 62.32662 11.40951 28164 ft 436 kts 343°
2026-05-04 20:49 62.35663 11.40244 27515 ft 431 kts 343°
2026-05-04 20:49 62.38656 11.39532 26893 ft 429 kts 345°
2026-05-04 20:49 62.41993 11.38758 26188 ft 424 kts 345°
2026-05-04 20:49 62.44514 11.38157 25666 ft 421 kts 345°
2026-05-04 20:50 62.47437 11.37455 25053 ft 418 kts 345°
2026-05-04 20:50 62.50315 11.36760 24464 ft 414 kts 345°
2026-05-04 20:50 62.53131 11.36086 23964 ft 409 kts 346°
2026-05-04 20:50 62.55019 11.35641 23722 ft 402 kts 346°
2026-05-04 20:51 62.57517 11.35050 23207 ft 400 kts 346°
2026-05-04 20:51 62.61622 11.34095 22313 ft 393 kts 346°
2026-05-04 20:51 62.64316 11.33448 21827 ft 385 kts 346°
2026-05-04 20:51 62.66960 11.32801 21337 ft 380 kts 347°
2026-05-04 20:52 62.69566 11.32157 20895 ft 375 kts 348°
2026-05-04 20:52 62.72139 11.31521 20443 ft 369 kts 349°
2026-05-04 20:52 62.73741 11.31126 20170 ft 366 kts 349°
2026-05-04 20:52 62.77082 11.30305 19593 ft 360 kts 349°
2026-05-04 20:53 62.79558 11.29703 19165 ft 356 kts 349°
2026-05-04 20:53 62.81185 11.29306 18882 ft 354 kts 349°
2026-05-04 20:53 62.84577 11.29381 17759 ft 371 kts
2026-05-04 20:53 62.87045 11.31408 16623 ft 387 kts 22°
2026-05-04 20:54 62.89496 11.33976 15768 ft 391 kts 22°
2026-05-04 20:54 62.91095 11.35705 15524 ft 385 kts 22°
2026-05-04 20:54 62.94067 11.38194 14981 ft 377 kts 15°
2026-05-04 20:54 62.96619 11.40822 14325 ft 381 kts 34°
2026-05-04 20:55 62.98769 11.44939 13949 ft 375 kts 36°